Snowfall_Accumulation
0.0 0.0 0.0 0.0 0.0 0.0 0.0 0.0 0.1 0.1 0.0 0.0 0.0 0.0 0.0 0.0 0.0 0.0 0.0 nan nan nan nan nan nan nan nan nan nan nan nan nan nan nan nan nan nan nan
0.0 0.0 0.0 0.0 0.0 0.0 0.0 0.0 0.0 0.0 0.1 0.0 0.0 0.0 0.0 0.0 0.0 0.0 0.0 nan nan nan nan nan nan nan nan nan nan nan nan nan nan nan nan nan nan nan
0.0 0.0 0.0 0.0 0.0 0.0 0.0 0.0 0.0 0.0 0.0 0.0 0.0 0.0 0.0 0.0 0.0 0.0 0.0 0.0 0.0 nan nan nan nan nan nan nan nan nan nan nan nan nan nan nan nan nan
0.0 0.0 0.0 0.0 0.0 0.0 0.0 0.0 0.0 0.0 0.0 0.0 0.0 0.0 0.0 0.0 0.0 0.0 0.0 0.0 0.0 nan nan nan nan nan nan nan nan nan nan nan nan nan nan nan nan nan
0.2 0.1 0.2 0.2 0.1 0.7 0.2 0.0 0.0 0.0 0.1 0.0 0.0 0.0 0.0 0.0 0.0 0.0 0.0 0.0 0.0 nan nan nan nan nan nan nan nan nan nan nan nan nan nan nan nan nan
0.1 0.1 0.1 0.1 0.3 0.3 0.4 2.0 0.3 0.2 0.2 0.2 0.0 0.1 0.0 0.1 0.2 0.2 0.1 0.2 0.3 0.0 nan nan nan nan nan nan nan nan nan nan nan nan nan nan nan nan
0.1 0.0 0.0 nan nan nan 0.5 0.5 0.8 0.6 0.7 0.5 0.5 0.4 0.4 0.3 0.8 1.0 0.3 0.5 0.7 0.4 0.3 0.1 0.0 0.1 0.1 nan nan nan nan nan nan nan nan nan nan nan
3.4 1.5 0.2 0.5 0.2 nan nan nan nan 1.9 0.5 0.9 2.0 3.5 4.6 3.8 0.7 1.3 1.4 0.6 1.0 0.7 2.1 0.8 0.1 0.3 0.7 0.5 nan nan nan nan nan nan nan nan nan nan
3.3 3.6 3.0 3.0 nan 2.1 nan nan nan nan 0.6 3.1 3.8 6.7 7.3 9.1 6.7 1.4 1.6 1.8 3.8 4.6 1.0 1.7 1.4 2.4 1.6 0.1 nan nan nan nan nan nan nan nan nan nan
0.1 0.1 0.0 0.1 0.4 0.8 0.6 2.0 2.8 3.2 3.6 4.1 5.1 6.1 5.7 4.7 5.4 5.2 3.7 1.1 1.9 3.8 4.9 4.1 4.1 6.5 3.5 2.1 nan nan nan nan nan nan nan nan nan nan
0.0 0.0 0.0 0.0 nan nan 0.0 0.0 0.1 1.0 nan nan nan nan nan nan nan 1.4 4.5 4.2 3.8 6.1 7.1 7.5 7.0 9.1 6.2 5.5 3.7 nan nan nan nan nan nan nan nan nan
0.3 0.1 nan 0.1 nan nan 0.0 0.1 2.5 4.2 3.0 2.2 2.5 1.1 nan nan nan 1.0 1.5 2.4 4.8 5.4 9.2 10.6 8.1 9.9 10.9 5.2 5.4 3.7 3.4 nan nan nan nan nan nan 1.4
2.3 2.4 1.8 nan nan nan nan 0.9 2.4 4.5 6.4 6.8 5.0 4.9 3.6 2.4 2.3 2.1 2.3 3.6 3.6 5.6 6.3 5.6 7.5 7.4 8.9 9.4 4.6 3.2 3.0 3.2 3.2 3.1 nan nan nan 2.7
3.8 4.2 5.1 nan nan nan 2.4 nan nan 2.7 5.5 5.8 5.0 5.3 5.8 5.9 4.6 4.1 4.5 3.9 4.3 5.6 3.1 2.0 6.0 6.4 7.3 7.7 5.4 1.7 2.1 1.8 2.1 3.2 3.1 nan nan nan
3.9 5.3 nan nan nan 1.3 nan nan 3.7 8.5 10.8 13.3 12.4 11.0 8.9 7.2 4.5 3.7 2.7 2.9 3.9 3.1 3.8 3.8 5.0 4.8 6.3 8.4 8.6 5.0 3.8 1.9 1.3 1.7 1.7 1.9 2.0 2.4
1.0 3.3 2.7 2.8 2.5 3.7 4.9 5.9 5.7 7.2 9.7 11.4 11.6 10.7 8.4 7.3 6.9 5.6 5.6 5.0 4.3 3.8 1.5 1.7 2.1 3.2 8.1 5.1 4.5 5.1 2.3 3.5 1.4 1.6 1.8 1.8 1.3 1.4
4.5 4.3 5.0 5.3 6.2 6.2 5.9 7.0 5.6 5.7 7.5 8.4 8.5 7.8 6.4 4.9 4.7 3.1 3.3 2.7 4.2 3.2 2.6 2.1 0.5 0.5 1.7 3.0 6.3 3.9 4.1 3.8 2.6 3.0 2.6 2.6 1.6 1.4
3.6 5.7 11.3 11.6 8.1 6.9 7.3 6.5 4.5 3.4 3.1 2.7 3.2 2.6 2.7 3.0 2.3 1.4 1.2 1.8 2.4 1.7 1.5 1.1 1.2 1.2 0.7 0.7 1.5 3.1 2.4 2.3 2.2 1.4 1.7 3.2 2.2 1.5
4.4 5.2 9.4 9.8 4.7 2.0 1.8 1.8 3.6 2.8 0.9 1.7 1.9 2.1 1.7 1.1 1.5 1.2 1.2 1.0 1.2 0.6 0.5 0.5 0.7 1.2 2.5 5.6 1.2 nan 2.4 1.4 1.8 2.1 1.2 1.7 2.6 1.8
1.4 2.7 4.3 3.2 1.2 0.9 0.9 1.2 1.5 2.1 1.9 1.1 1.9 3.4 4.7 2.4 2.4 1.4 1.0 2.7 1.1 0.6 0.4 0.2 0.3 0.7 3.2 8.5 10.1 3.2 nan 3.6 2.3 2.5 2.0 1.1 0.7 nan
1.5 1.2 2.3 1.6 1.6 1.1 4.8 5.5 8.1 7.0 7.0 10.2 4.9 6.1 13.2 3.0 3.7 2.4 2.6 2.5 2.0 0.7 0.7 0.4 0.3 0.2 0.4 1.1 14.6 3.9 1.1 nan 0.3 0.9 0.9 1.9 1.3 0.9
3.0 1.7 1.8 1.8 2.5 2.2 5.8 11.1 9.3 9.4 6.7 4.9 10.8 15.4 13.0 4.7 4.9 4.4 5.5 4.9 1.2 1.4 0.7 0.3 0.1 0.2 0.6 1.1 2.1 6.6 1.5 0.9 nan nan nan nan 4.3 8.0
5.4 1.8 2.7 3.7 3.0 3.6 2.0 5.3 2.2 13.0 5.0 6.4 5.0 5.3 27.3 9.3 3.3 3.5 4.2 2.7 1.5 1.7 1.0 1.1 0.5 0.4 0.5 0.5 1.0 2.7 1.4 3.6 1.0 1.1 2.3 nan nan nan
Water_Equivalent
0.00 0.00 0.00 0.00 0.00 0.00 0.00 0.00 0.02 0.02 0.00 0.00 0.00 0.00 0.00 0.00 0.00 0.00 0.00 nan nan nan nan nan nan nan nan nan nan nan nan nan nan nan nan nan nan nan
0.00 0.00 0.00 0.00 0.00 0.00 0.00 0.00 0.00 0.01 0.02 0.00 0.00 0.00 0.00 0.00 0.00 0.00 0.00 nan nan nan nan nan nan nan nan nan nan nan nan nan nan nan nan nan nan nan
0.00 0.00 0.00 0.00 0.00 0.00 0.00 0.00 0.00 0.00 0.00 0.00 0.00 0.00 0.00 0.00 0.00 0.00 0.00 0.00 0.00 nan nan nan nan nan nan nan nan nan nan nan nan nan nan nan nan nan
0.00 0.00 0.01 0.00 0.00 0.00 0.00 0.00 0.00 0.00 0.00 0.00 0.00 0.00 0.00 0.00 0.00 0.00 0.00 0.00 0.00 nan nan nan nan nan nan nan nan nan nan nan nan nan nan nan nan nan
0.04 0.03 0.06 0.04 0.03 0.19 0.04 0.01 0.00 0.01 0.02 0.00 0.00 0.00 0.00 0.00 0.00 0.00 0.00 0.00 0.00 nan nan nan nan nan nan nan nan nan nan nan nan nan nan nan nan nan
0.01 0.02 0.01 0.02 0.05 0.06 0.09 0.41 0.06 0.04 0.05 0.06 0.01 0.02 0.00 0.02 0.06 0.05 0.03 0.05 0.07 0.00 nan nan nan nan nan nan nan nan nan nan nan nan nan nan nan nan
0.02 0.01 0.01 nan nan nan 0.09 0.09 0.13 0.11 0.15 0.11 0.10 0.09 0.09 0.05 0.15 0.25 0.09 0.14 0.19 0.10 0.08 0.02 0.00 0.03 0.04 nan nan nan nan nan nan nan nan nan nan nan
0.85 0.40 0.06 0.13 0.05 nan nan nan nan 0.31 0.08 0.16 0.36 0.58 0.72 0.74 0.15 0.27 0.33 0.15 0.19 0.21 0.49 0.20 0.04 0.06 0.17 0.12 nan nan nan nan nan nan nan nan nan nan
0.85 0.93 0.74 0.79 nan 0.56 nan nan nan nan 0.20 0.53 0.62 1.10 1.24 1.37 1.09 0.26 0.28 0.39 0.70 0.85 0.21 0.43 0.45 0.61 0.46 0.03 nan nan nan nan nan nan nan nan nan nan
0.02 0.02 0.01 0.01 0.08 0.19 0.15 0.43 0.55 0.67 0.72 0.81 0.99 1.23 1.17 0.97 1.03 0.98 0.69 0.23 0.39 0.73 0.74 0.78 1.01 1.61 1.04 0.69 nan nan nan nan nan nan nan nan nan nan
0.01 0.01 0.00 0.00 nan nan 0.00 0.00 0.03 0.20 nan nan nan nan nan nan nan 0.30 0.87 0.89 0.91 1.19 1.31 1.28 1.51 1.98 1.70 1.47 1.01 nan nan nan nan nan nan nan nan nan
0.06 0.03 nan 0.02 nan nan 0.00 0.01 0.41 0.68 0.59 0.46 0.52 0.26 nan nan nan 0.20 0.31 0.39 0.85 1.05 1.65 1.78 1.61 1.93 2.20 1.42 1.46 1.02 1.06 nan nan nan nan nan nan 0.40
0.54 0.56 0.45 nan nan nan nan 0.17 0.40 0.83 1.15 1.12 0.89 0.92 0.70 0.46 0.47 0.43 0.46 0.73 0.82 1.21 1.33 1.33 1.71 1.61 1.75 1.60 1.03 0.72 0.71 0.73 0.86 0.92 nan nan nan 0.70
0.80 1.04 1.28 nan nan nan 0.55 nan nan 0.78 1.19 1.12 0.98 1.02 1.11 1.14 0.98 0.90 0.96 0.84 0.94 1.09 0.79 0.56 1.40 1.22 1.25 1.25 0.89 0.37 0.42 0.39 0.48 0.65 0.78 nan nan nan
0.95 1.30 nan nan nan 0.44 nan nan 1.23 1.85 2.33 2.84 2.67 2.30 1.92 1.53 1.04 0.86 0.61 0.63 0.77 0.69 0.82 0.87 1.05 0.92 1.20 1.28 1.18 0.81 0.66 0.42 0.31 0.38 0.38 0.41 0.46 0.55
0.29 0.84 0.88 0.74 0.83 1.07 1.28 1.32 1.33 1.61 2.01 2.21 2.10 1.91 1.58 1.37 1.28 1.07 1.09 1.03 0.91 0.80 0.33 0.40 0.50 0.71 1.45 1.08 0.89 0.96 0.49 0.67 0.31 0.36 0.44 0.48 0.37 0.39
1.32 1.21 1.26 1.28 1.38 1.32 1.27 1.39 1.23 1.25 1.46 1.58 1.53 1.33 1.13 0.91 0.84 0.61 0.63 0.54 0.77 0.56 0.46 0.42 0.10 0.11 0.38 0.53 1.09 0.70 0.70 0.65 0.48 0.58 0.50 0.53 0.39 0.35
0.96 1.31 2.08 2.10 1.41 1.15 1.20 1.04 0.78 0.69 0.56 0.54 0.63 0.47 0.47 0.54 0.41 0.28 0.26 0.36 0.44 0.31 0.29 0.21 0.24 0.25 0.16 0.17 0.31 0.52 0.41 0.39 0.39 0.29 0.36 0.61 0.43 0.38
1.00 0.98 1.59 1.74 0.90 0.42 0.36 0.35 0.60 0.50 0.14 0.34 0.40 0.45 0.36 0.25 0.34 0.26 0.28 0.24 0.27 0.13 0.10 0.11 0.17 0.28 0.43 0.75 0.24 nan 0.44 0.25 0.36 0.42 0.25 0.33 0.53 0.37
0.33 0.53 0.78 0.62 0.25 0.19 0.18 0.22 0.27 0.41 0.38 0.24 0.43 0.74 0.94 0.51 0.54 0.31 0.24 0.49 0.25 0.14 0.09 0.04 0.08 0.16 0.47 1.22 1.69 0.63 nan 0.81 0.48 0.48 0.35 0.21 0.17 nan
0.30 0.25 0.47 0.31 0.31 0.22 0.82 0.98 1.43 1.27 1.32 1.90 1.01 1.15 2.53 0.60 0.71 0.50 0.53 0.60 0.54 0.15 0.15 0.10 0.08 0.06 0.10 0.26 2.70 0.84 0.29 nan 0.06 0.18 0.16 0.36 0.26 0.18
0.53 0.30 0.32 0.32 0.43 0.38 1.02 1.96 1.73 1.76 1.16 0.86 1.77 2.76 2.44 0.87 0.80 0.69 0.91 0.87 0.25 0.27 0.14 0.07 0.04 0.06 0.15 0.20 0.35 1.30 0.32 0.23 nan nan nan nan 0.65 1.04
0.94 0.32 0.48 0.69 0.58 0.69 0.35 0.91 0.38 2.42 0.83 0.97 0.81 0.86 5.06 1.35 0.59 0.63 0.76 0.50 0.30 0.32 0.21 0.21 0.11 0.09 0.11 0.11 0.19 0.47 0.23 0.72 0.21 0.21 0.45 nan nan nan
SL_Ratio
nan nan nan nan nan nan nan nan 4.6 5.8 nan nan nan nan nan nan nan nan nan nan nan nan nan nan nan nan nan nan nan nan nan nan nan nan nan nan nan nan
nan nan nan nan nan nan nan nan nan 4.6 5.8 nan nan nan nan nan nan nan nan nan nan nan nan nan nan nan nan nan nan nan nan nan nan nan nan nan nan nan
nan nan nan nan nan nan nan nan nan nan nan nan nan nan nan nan nan nan nan nan nan nan nan nan nan nan nan nan nan nan nan nan nan nan nan nan nan nan
nan 4.0 3.6 nan nan nan nan nan nan nan nan nan nan nan nan nan nan nan nan nan nan nan nan nan nan nan nan nan nan nan nan nan nan nan nan nan nan nan
4.6 4.4 4.4 4.4 4.8 4.0 3.9 4.1 4.6 3.9 4.0 5.0 nan nan nan nan 0.0 nan nan nan nan nan nan nan nan nan nan nan nan nan nan nan nan nan nan nan nan nan
4.9 4.7 4.7 5.0 5.1 4.8 4.7 5.0 4.9 4.2 3.8 3.9 4.2 4.1 3.3 3.7 3.7 3.5 3.9 3.0 4.0 nan nan nan nan nan nan nan nan nan nan nan nan nan nan nan nan nan
3.8 3.3 4.1 nan nan nan 5.4 5.7 6.0 5.6 4.6 4.7 4.8 4.7 5.1 5.6 5.5 4.2 3.6 3.5 3.7 4.2 3.5 3.4 2.5 3.4 3.6 nan nan nan nan nan nan nan nan nan nan nan
4.0 3.7 3.6 3.5 3.2 nan nan nan nan 6.1 6.9 5.9 5.6 6.0 6.4 5.2 4.9 4.8 4.3 4.2 5.4 3.3 4.3 4.1 2.9 4.1 3.9 4.4 nan nan nan nan nan nan nan nan nan nan
4.0 3.8 4.1 3.8 nan 3.7 nan nan nan nan 3.0 5.8 6.1 6.1 5.9 6.6 6.1 5.6 5.6 4.8 5.4 5.4 4.8 4.0 3.1 3.9 3.5 3.9 nan nan nan nan nan nan nan nan nan nan
4.3 4.3 4.6 4.7 4.5 4.1 3.7 4.7 5.1 4.9 5.0 5.1 5.2 5.0 4.9 4.9 5.3 5.3 5.3 4.9 4.9 5.2 6.6 5.2 4.1 4.1 3.3 3.1 nan nan nan nan nan nan nan nan nan nan
5.2 4.8 5.0 nan nan nan nan 0.0 4.2 4.9 nan nan nan nan nan nan nan 4.6 5.2 4.7 4.2 5.1 5.4 5.8 4.6 4.6 3.6 3.7 3.6 nan nan nan nan nan nan nan nan nan
4.8 4.4 nan 3.9 nan nan 5.0 5.0 6.0 6.2 5.1 4.7 4.8 4.4 nan nan nan 5.0 5.0 6.1 5.6 5.2 5.6 5.9 5.0 5.1 5.0 3.7 3.7 3.7 3.2 nan nan nan nan nan nan 3.6
4.3 4.2 3.9 nan nan nan nan 5.4 6.0 5.5 5.5 6.0 5.6 5.3 5.1 5.2 4.9 5.0 5.1 4.9 4.4 4.6 4.7 4.2 4.4 4.6 5.1 5.9 4.5 4.4 4.2 4.4 3.7 3.4 nan nan nan 3.9
4.8 4.1 4.0 nan nan nan 4.4 nan nan 3.5 4.6 5.2 5.1 5.2 5.2 5.2 4.7 4.5 4.7 4.6 4.6 5.1 3.9 3.6 4.3 5.3 5.8 6.1 6.0 4.6 4.9 4.5 4.5 4.9 4.0 nan nan nan
4.1 4.1 nan nan nan 3.0 nan nan 3.0 4.6 4.6 4.7 4.6 4.8 4.6 4.7 4.4 4.3 4.4 4.7 5.0 4.6 4.7 4.4 4.7 5.2 5.3 6.6 7.3 6.2 5.7 4.6 4.2 4.5 4.5 4.6 4.4 4.3
3.5 4.0 3.0 3.8 3.0 3.5 3.9 4.5 4.3 4.5 4.8 5.1 5.5 5.6 5.3 5.4 5.4 5.2 5.1 4.9 4.7 4.7 4.4 4.2 4.1 4.5 5.6 4.7 5.1 5.3 4.7 5.3 4.5 4.3 4.2 3.7 3.7 3.6
3.4 3.6 4.0 4.1 4.5 4.7 4.6 5.0 4.6 4.6 5.1 5.3 5.5 5.8 5.7 5.4 5.6 5.1 5.3 5.1 5.5 5.6 5.6 4.9 4.7 4.5 4.6 5.7 5.8 5.5 5.9 5.9 5.4 5.2 5.1 5.0 4.2 4.0
3.7 4.3 5.4 5.5 5.8 6.0 6.1 6.3 5.8 5.0 5.5 5.1 5.1 5.5 5.8 5.6 5.5 4.8 4.7 5.0 5.4 5.3 5.3 5.1 4.7 4.8 4.3 4.3 4.8 6.0 5.9 5.9 5.6 5.0 4.8 5.3 5.1 4.0
4.4 5.3 5.9 5.6 5.3 4.8 5.0 5.1 5.9 5.6 6.3 4.9 4.8 4.8 4.6 4.6 4.4 4.4 4.3 4.3 4.5 4.5 4.7 4.2 4.4 4.3 5.8 7.4 5.1 nan 5.6 5.5 5.1 5.1 5.0 5.2 5.0 4.8
4.3 5.2 5.5 5.1 4.8 4.9 5.1 5.5 5.5 5.1 5.0 4.5 4.3 4.6 5.0 4.7 4.5 4.5 4.3 5.5 4.5 4.3 4.1 3.8 3.9 4.4 6.9 7.0 6.0 5.0 nan 4.5 4.9 5.2 5.5 5.0 4.4 nan
4.8 4.8 5.0 5.1 5.2 5.1 5.8 5.6 5.7 5.5 5.3 5.4 4.8 5.3 5.2 5.0 5.2 4.9 5.0 4.2 3.7 4.5 4.7 4.5 4.2 3.0 4.0 4.1 5.4 4.7 3.7 nan 4.6 5.0 5.5 5.3 5.1 4.9
5.8 5.6 5.6 5.8 5.9 5.9 5.7 5.7 5.4 5.3 5.7 5.7 6.1 5.6 5.3 5.5 6.2 6.3 6.1 5.7 5.0 5.1 5.4 4.2 3.4 3.7 3.9 5.3 5.9 5.1 4.6 4.1 nan nan nan nan 6.7 7.7
5.7 5.7 5.5 5.3 5.2 5.2 5.6 5.9 5.8 5.4 6.1 6.6 6.2 6.2 5.4 6.9 5.6 5.5 5.6 5.4 5.1 5.4 5.1 5.4 4.7 4.4 4.3 5.0 5.2 5.7 6.0 5.0 5.0 5.1 5.1 nan nan nan